TimeEDT,TemperatureF,Dew PointF,Humidity,Sea Level PressureIn,VisibilityMPH,Wind Direction,Wind SpeedMPH,Gust SpeedMPH,PrecipitationIn,Events,Conditions,WindDirDegrees,DateUTC
12:12 AM,60.8,53.6,77,30.24,10.0,ENE,10.4,-,N/A,,Overcast,70,2013-10-13 04:12:00
12:14 AM,60.8,53.6,77,30.24,10.0,ENE,8.1,-,N/A,,Overcast,60,2013-10-13 04:14:00
12:58 AM,61.2,53.6,76,30.25,10.0,ENE,9.2,-,N/A,,Overcast,60,2013-10-13 04:58:00
1:52 AM,60.8,53.6,77,30.24,10.0,ENE,9.2,-,N/A,,Overcast,60,2013-10-13 05:52:00
1:58 AM,61.2,53.2,75,30.25,10.0,ENE,10.4,-,N/A,,Overcast,70,2013-10-13 05:58:00
2:58 AM,61.0,53.4,76,30.25,10.0,ENE,9.2,-,N/A,,Overcast,70,2013-10-13 06:58:00
3:58 AM,60.8,52.0,73,30.26,10.0,ENE,8.1,-,N/A,,Overcast,60,2013-10-13 07:58:00
4:58 AM,60.3,50.9,71,30.26,10.0,East,10.4,-,N/A,,Overcast,80,2013-10-13 08:58:00
5:58 AM,59.7,50.5,72,30.28,10.0,ENE,6.9,-,N/A,,Overcast,60,2013-10-13 09:58:00
6:58 AM,59.2,50.4,73,30.30,10.0,ENE,11.5,16.1,N/A,,Overcast,60,2013-10-13 10:58:00
7:58 AM,58.6,49.8,72,30.32,10.0,ENE,9.2,17.3,N/A,,Overcast,70,2013-10-13 11:58:00
8:58 AM,58.5,49.6,72,30.34,10.0,ENE,10.4,-,N/A,,Overcast,70,2013-10-13 12:58:00
9:25 AM,59.0,50.0,72,30.34,10.0,ENE,10.4,-,N/A,,Overcast,60,2013-10-13 13:25:00
9:58 AM,58.3,49.8,73,30.35,10.0,ENE,9.2,-,N/A,,Overcast,70,2013-10-13 13:58:00
10:58 AM,60.8,49.5,66,30.35,10.0,ENE,10.4,18.4,N/A,,Overcast,70,2013-10-13 14:58:00
11:58 AM,62.4,49.5,63,30.35,10.0,ENE,9.2,-,N/A,,Scattered Clouds,70,2013-10-13 15:58:00
12:10 PM,62.6,50.0,63,30.34,10.0,East,8.1,21.9,N/A,Rain,Light Rain,80,2013-10-13 16:10:00
12:19 PM,62.6,50.0,63,30.34,10.0,East,8.1,-,N/A,,Scattered Clouds,80,2013-10-13 16:19:00
12:58 PM,64.8,49.5,58,30.34,10.0,ESE,8.1,-,0.00,,Scattered Clouds,110,2013-10-13 16:58:00
1:58 PM,66.4,50.4,56,30.32,10.0,Variable,5.8,-,N/A,,Clear,0,2013-10-13 17:58:00
2:58 PM,67.6,50.2,54,30.31,10.0,East,6.9,-,N/A,,Clear,90,2013-10-13 18:58:00
3:58 PM,68.5,48.7,49,30.31,10.0,East,8.1,-,N/A,,Clear,90,2013-10-13 19:58:00
4:58 PM,68.2,48.9,50,30.31,10.0,ESE,6.9,-,N/A,,Clear,110,2013-10-13 20:58:00
5:58 PM,65.8,48.0,53,30.31,10.0,East,4.6,-,N/A,,Clear,90,2013-10-13 21:58:00
6:58 PM,59.2,50.4,73,30.33,10.0,NNE,3.5,-,N/A,,Clear,30,2013-10-13 22:58:00
7:58 PM,56.7,49.6,77,30.34,10.0,NE,2.3,-,N/A,,Clear,40,2013-10-13 23:58:00
8:58 PM,54.0,50.0,86,30.35,10.0,NE,2.3,-,N/A,,Clear,50,2013-10-14 00:58:00
9:58 PM,53.1,48.9,86,30.36,10.0,NNE,3.5,-,N/A,,Clear,30,2013-10-14 01:58:00
10:58 PM,51.4,48.6,90,30.37,10.0,NNE,2.3,-,N/A,,Clear,30,2013-10-14 02:58:00
11:58 PM,50.7,48.0,90,30.38,10.0,NE,2.3,-,N/A,,Scattered Clouds,50,2013-10-14 03:58:00